Omak, WA

10:16 PM PST on February 26, 2017 (GMT -0800)
Omak

Weather History for KOMK - November, 2012

Change the Weather History Date:

Tuesday, November 20, 2012

  Actual Average Record
Temperature  
Mean Temperature 44 °F 34 °F  
Max Temperature 50 °F 41 °F 58 °F (1962)
Min Temperature 37 °F 27 °F 8 °F (1961)
Degree Days  
Heating Degree Days 21 31  
Month to date heating degree days 484 541  
Since 1 July heating degree days 1020 1201  
Cooling Degree Days 0 0  
Month to date cooling degree days 0 0  
Year to date cooling degree days 629 665  
Moisture  
Dew Point 41 °F    
Average Humidity 79    
Maximum Humidity 92    
Minimum Humidity 66    
Precipitation  
Precipitation 0.13 in 0.05 in 0.49 in (1960)
Month to date precipitation 2.13 1.01  
Year to date precipitation 14.23 11.95  
Sea Level Pressure  
Sea Level Pressure 29.66 in    
Wind  
Wind Speed 7 mph (South)    
Max Wind Speed 6 mph    
Max Gust Speed 7 mph    
Visibility 9 miles    
Events Rain , Thunderstorm    
T = Trace of Precipitation, MM = Missing Value Source: NWS Daily Summary

Daily Weather History Graph

Daily Weather History Graph

Search for Another Location

Airport or City:

Trip Planner

Search our weather history database for the weather conditions in past years. The results will help you decide how hot, cold, wet, or windy it might be!

Date:

Astronomy

Nov. 20, 2012 Rise Set
Actual Time 7:14 AM PST 4:12 PM PST
Civil Twilight 6:39 AM PST 4:47 PM PST
Nautical Twilight 6:00 AM PST 5:26 PM PST
Astronomical Twilight 5:23 AM PST 6:03 PM PST
Moon 12:33 PM PST (11/20) No Moon Set
Length of Visible Light 10h 08m
Length of Day
8h 58m
First Quarter, 52% of the Moon is Illuminated
Nov 20
First Quarter
Nov 28
Full
Dec 6
Last Quarter
Dec 13
New
Dec 19
First Quarter

Hourly Weather History & Observations

Time (PST) Temp. Windchill Dew Point Humidity Pressure Visibility Wind Dir Wind Speed Gust Speed Precip Events Conditions
12:53 AM 48.0 °F - 39.9 °F 74% 29.69 in 10.0 mi SSE 15.0 mph 19.6 mph N/A   Partly Cloudy
1:53 AM 48.0 °F - 39.0 °F 71% 29.71 in 10.0 mi South 11.5 mph - N/A   Scattered Clouds
2:53 AM 48.0 °F - 39.9 °F 74% 29.72 in 10.0 mi South 9.2 mph - N/A   Partly Cloudy
3:53 AM 46.9 °F - 39.9 °F 77% 29.73 in 10.0 mi South 8.1 mph - N/A   Overcast
4:01 AM 46.4 °F 44.3 °F 39.2 °F 76% 29.71 in 10.0 mi South 4.6 mph - N/A   Overcast
4:28 AM 46.4 °F 44.3 °F 39.2 °F 76% 29.72 in 10.0 mi SSE 4.6 mph - N/A   Overcast
4:53 AM 46.0 °F 43.9 °F 39.0 °F 76% 29.74 in 10.0 mi SSW 4.6 mph - N/A   Overcast
5:53 AM 44.1 °F 40.1 °F 39.0 °F 82% 29.73 in 10.0 mi SW 6.9 mph - N/A   Overcast
6:53 AM 46.0 °F 42.5 °F 39.0 °F 76% 29.73 in 10.0 mi South 6.9 mph - N/A   Overcast
7:11 AM 46.4 °F 44.3 °F 39.2 °F 76% 29.71 in 10.0 mi South 4.6 mph - N/A   Overcast
7:53 AM 45.0 °F 43.5 °F 39.9 °F 82% 29.71 in 10.0 mi SW 3.5 mph - N/A   Overcast
8:10 AM 44.6 °F 43.1 °F 39.2 °F 81% 29.69 in 10.0 mi West 3.5 mph - N/A   Overcast
8:53 AM 46.0 °F 43.9 °F 39.9 °F 79% 29.70 in 10.0 mi WSW 4.6 mph - N/A   Overcast
9:07 AM 46.4 °F 45.2 °F 39.2 °F 76% 29.68 in 10.0 mi WSW 3.5 mph - N/A   Overcast
9:49 AM 46.4 °F - 41.0 °F 81% 29.67 in 10.0 mi Calm Calm - N/A   Overcast
9:53 AM 46.0 °F - 41.0 °F 83% 29.68 in 10.0 mi Calm Calm - N/A   Overcast
10:01 AM 46.4 °F - 41.0 °F 81% 29.67 in 10.0 mi Calm Calm - 0.00 in Rain Light Rain
10:53 AM 45.0 °F 43.5 °F 43.0 °F 93% 29.65 in 10.0 mi NNE 3.5 mph - 0.00 in   Overcast
11:48 AM 44.6 °F - 42.8 °F 93% 29.62 in 1.8 mi Calm Calm - 0.05 in Rain Rain
11:53 AM 45.0 °F 43.5 °F 43.0 °F 93% 29.63 in 1.5 mi East 3.5 mph - 0.06 in Rain Rain
12:15 PM 44.6 °F 41.4 °F 42.8 °F 93% 29.61 in 1.5 mi South 5.8 mph - 0.04 in Rain Light Rain
12:24 PM 44.6 °F 42.2 °F 42.8 °F 93% 29.61 in 2.5 mi SSE 4.6 mph - 0.05 in Rain Light Rain
12:29 PM 44.6 °F 43.1 °F 42.8 °F 93% 29.60 in 3.0 mi SSW 3.5 mph - 0.05 in Rain Light Rain
12:43 PM 44.6 °F 43.1 °F 42.8 °F 93% 29.59 in 9.0 mi SSW 3.5 mph - 0.05 in Rain Light Rain
12:53 PM 45.0 °F 42.6 °F 43.0 °F 93% 29.61 in 9.0 mi SSW 4.6 mph - 0.05 in   Overcast
1:16 PM 46.4 °F 43.5 °F 44.6 °F 93% 29.58 in 10.0 mi South 5.8 mph - N/A   Overcast
1:53 PM 46.9 °F - 44.1 °F 90% 29.60 in 10.0 mi South 6.9 mph - 0.01 in Rain Light Rain
2:02 PM 46.4 °F 42.4 °F 44.6 °F 93% 29.59 in 10.0 mi South 8.1 mph - 0.00 in Rain Light Rain
2:53 PM 48.0 °F - 45.0 °F 89% 29.59 in 10.0 mi South 9.2 mph - 0.00 in Rain Light Rain
3:53 PM 48.9 °F - 44.1 °F 83% 29.60 in 10.0 mi South 12.7 mph - 0.00 in   Overcast
4:01 PM 48.2 °F - 44.6 °F 87% 29.59 in 10.0 mi South 12.7 mph - N/A   Overcast
4:53 PM 48.9 °F - 44.1 °F 83% 29.62 in 10.0 mi South 11.5 mph - N/A   Overcast
5:24 PM 48.2 °F - 42.8 °F 82% 29.61 in 10.0 mi South 8.1 mph - 0.01 in Thunderstorm Scattered Clouds
5:39 PM 46.4 °F 42.9 °F 42.8 °F 87% 29.61 in 10.0 mi SSE 6.9 mph - 0.01 in   Partly Cloudy
5:53 PM 46.9 °F - 43.0 °F 86% 29.64 in 10.0 mi SSE 8.1 mph - 0.01 in   Partly Cloudy
6:53 PM 46.0 °F 43.1 °F 37.9 °F 73% 29.66 in 10.0 mi SSE 5.8 mph - N/A   Clear
7:53 PM 43.0 °F 38.8 °F 37.0 °F 80% 29.66 in 10.0 mi SSE 6.9 mph - N/A   Clear
8:53 PM 43.0 °F 38.2 °F 36.0 °F 76% 29.67 in 10.0 mi South 8.1 mph - N/A   Clear
9:53 PM 42.1 °F 38.4 °F 36.0 °F 79% 29.68 in 10.0 mi South 5.8 mph - N/A   Clear
10:53 PM 41.0 °F 37.1 °F 35.1 °F 79% 29.68 in 10.0 mi South 5.8 mph - N/A   Clear
11:53 PM 37.9 °F 35.5 °F 34.0 °F 86% 29.70 in - SW 3.5 mph - N/A   Unknown